Weather History for Tillamook, OR

Change the Weather History Date:

Monday, September 30, 2013

  Actual Average (KMMV) Record (KMMV)
Temperature  
Mean Temperature 55 °F 57 °F  
Max Temperature 59 °F 70 °F 90 °F (1987)
Min Temperature 51 °F 44 °F 30 °F (1950)
Degree Days  
Heating Degree Days 10 8  
Month to date heating degree days 130  
Since 1 July heating degree days 216  
Cooling Degree Days 0 0  
Month to date cooling degree days 30  
Year to date cooling degree days 214  
Growing Degree Days 5 (Base 50)    
Moisture  
Dew Point 49 °F    
Average Humidity 85    
Maximum Humidity 94    
Minimum Humidity 72    
Precipitation  
Precipitation 0.04 in 0.07 in 1.11 in (2005)
Month to date precipitation 1.38  
Year to date precipitation 23.71  
Snow  
Snow 0.00 in - - ()
Month to date snowfall  
Since 1 July snowfall  
Since 1 September snowfall  
Snow Depth -    
Sea Level Pressure  
Sea Level Pressure 29.83 in    
Wind  
Wind Speed 13 mph (SSW)    
Max Wind Speed 26 mph    
Max Gust Speed 33 mph    
Visibility 8 miles    
Events Rain    
T = Trace of Precipitation, MM = Missing Value Source: NWS Daily Summary

Daily Weather History Graph

Daily Weather History Graph

Search for Another Location

Airport:

Trip Planner

Search our weather history database for the weather conditions in past years. The results will help you decide how hot, cold, wet, or windy it might be!

Date:

Astronomy

Sep. 30, 2013 Rise Set
Actual Time 8:12 AM MDT 7:56 PM MDT
Civil Twilight 7:43 AM MDT 8:26 PM MDT
Nautical Twilight 7:08 AM MDT 9:00 PM MDT
Astronomical Twilight 6:33 AM MDT 9:35 PM MDT
Moon 3:44 AM MDT (9/30) 5:39 PM MDT (9/30)
Length of Visible Light 12h 43m
Length of Day
11h 44m
Waning Crescent, 18% of the Moon is Illuminated
Sep 30
Waning Crescent
Oct 4
New
Oct 11
First Quarter
Oct 18
Full
Oct 26
Last Quarter

Hourly Weather History & Observations

Time (MDT) Temp. Dew Point Humidity Pressure Visibility Wind Dir Wind Speed Gust Speed Precip Events Conditions
12:15 AM - - N/A% 29.59 in 7.0 mi SW 12.7 mph 20.7 mph N/A   Mostly Cloudy
12:35 AM - - N/A% 29.60 in 7.0 mi SW 17.3 mph 21.9 mph N/A   Mostly Cloudy
12:55 AM - - N/A% 29.61 in 10.0 mi SW 16.1 mph 26.5 mph N/A   Scattered Clouds
1:15 AM - - N/A% 29.62 in 10.0 mi SW 15.0 mph 23.0 mph N/A   Scattered Clouds
1:35 AM - - N/A% 29.63 in 10.0 mi SW 16.1 mph 24.2 mph N/A   Scattered Clouds
1:55 AM - - N/A% 29.63 in 10.0 mi SW 16.1 mph 27.6 mph N/A   Scattered Clouds
2:15 AM - - N/A% 29.65 in 7.0 mi SW 15.0 mph 28.8 mph N/A   Mostly Cloudy
2:35 AM - - N/A% 29.65 in 10.0 mi SSW 13.8 mph 26.5 mph N/A   Mostly Cloudy
2:55 AM - - N/A% 29.65 in 10.0 mi SSW 12.7 mph 23.0 mph N/A   Mostly Cloudy
3:15 AM - - N/A% 29.66 in 7.0 mi SSW 18.4 mph 26.5 mph N/A   Overcast
3:35 AM - - N/A% 29.67 in 4.0 mi SSW 12.7 mph 20.7 mph N/A Rain Light Rain
3:55 AM - - N/A% 29.67 in 7.0 mi SW 23.0 mph 32.2 mph 0.01 in   Overcast
4:15 AM - - N/A% 29.67 in 10.0 mi SSW 20.7 mph 28.8 mph N/A   Overcast
4:35 AM - - N/A% 29.66 in 7.0 mi SSW 20.7 mph 29.9 mph N/A   Overcast
4:55 AM - - N/A% 29.66 in 7.0 mi SSW 15.0 mph 28.8 mph N/A   Overcast
5:15 AM - - N/A% 29.68 in 7.0 mi SSW 17.3 mph 27.6 mph N/A Rain Rain
5:35 AM - - N/A% 29.68 in 7.0 mi SW 21.9 mph 31.1 mph N/A   Overcast
5:55 AM - - N/A% 29.69 in 7.0 mi SW 24.2 mph 29.9 mph N/A   Overcast
6:15 AM - - N/A% 29.69 in 7.0 mi SW 20.7 mph 29.9 mph N/A   Overcast
6:35 AM - - N/A% 29.70 in 7.0 mi SSW 15.0 mph 31.1 mph N/A Rain Light Rain
6:55 AM - - N/A% 29.71 in 7.0 mi SW 19.6 mph 27.6 mph N/A   Mostly Cloudy
7:15 AM - - N/A% 29.72 in 10.0 mi SW 19.6 mph 31.1 mph N/A   Mostly Cloudy
7:35 AM - - N/A% 29.72 in 10.0 mi SW 20.7 mph 33.4 mph N/A   Overcast
7:55 AM - - N/A% 29.73 in 10.0 mi SW 15.0 mph 24.2 mph N/A   Mostly Cloudy
8:15 AM - - N/A% 29.74 in 7.0 mi SW 26.5 mph 33.4 mph N/A   Mostly Cloudy
8:35 AM - - N/A% 29.76 in 7.0 mi WSW 19.6 mph 28.8 mph N/A Rain Light Rain
8:55 AM - - N/A% 29.77 in 7.0 mi WSW 6.9 mph 19.6 mph N/A   Overcast
9:15 AM - - N/A% 29.77 in 7.0 mi SW 15.0 mph 19.6 mph N/A   Mostly Cloudy
9:35 AM - - N/A% 29.78 in 7.0 mi SW 21.9 mph 33.4 mph N/A   Scattered Clouds
9:55 AM - - N/A% 29.80 in 10.0 mi SW 18.4 mph 32.2 mph 0.01 in   Scattered Clouds
10:15 AM - - N/A% 29.81 in 10.0 mi SSW 13.8 mph 20.7 mph N/A   Scattered Clouds
10:35 AM - - N/A% 29.81 in 7.0 mi WSW 15.0 mph 20.7 mph N/A Rain Light Rain
10:55 AM - - N/A% 29.84 in 10.0 mi WSW 8.1 mph - N/A   Drizzle
11:15 AM - - N/A% 29.85 in 7.0 mi SW 9.2 mph 18.4 mph N/A   Mostly Cloudy
11:35 AM - - N/A% 29.86 in 10.0 mi Calm Calm - N/A   Scattered Clouds
11:55 AM - - N/A% 29.87 in 10.0 mi Calm Calm - N/A   Mostly Cloudy
12:15 PM - - N/A% 29.87 in 10.0 mi SW 10.4 mph - N/A   Overcast
12:35 PM - - N/A% 29.87 in 10.0 mi SW 9.2 mph 18.4 mph N/A   Overcast
12:55 PM - - N/A% 29.89 in 5.0 mi South 9.2 mph - N/A Rain Light Rain
1:15 PM - - N/A% 29.91 in 5.0 mi WSW 13.8 mph 21.9 mph N/A Rain Rain
1:35 PM - - N/A% 29.91 in 7.0 mi SSW 5.8 mph - N/A Rain Light Rain
1:55 PM - - N/A% 29.92 in 10.0 mi SW 12.7 mph 17.3 mph N/A   Mostly Cloudy
2:15 PM - - N/A% 29.92 in 10.0 mi SSW 5.8 mph 9.2 mph N/A   Overcast
2:35 PM - - N/A% 29.92 in 10.0 mi SSW 13.8 mph 18.4 mph N/A   Overcast
2:55 PM - - N/A% 29.94 in 4.0 mi SSW 11.5 mph 20.7 mph N/A Rain Rain
3:15 PM - - N/A% 29.94 in 10.0 mi SSE 10.4 mph - N/A   Overcast
3:35 PM - - N/A% 29.95 in 10.0 mi SSE 6.9 mph - N/A   Overcast
3:55 PM - - N/A% 29.94 in 10.0 mi SSE 9.2 mph - N/A   Overcast
4:15 PM - - N/A% 29.94 in 7.0 mi South 10.4 mph - 0.01 in   Scattered Clouds
4:35 PM - - N/A% 29.95 in 10.0 mi West 11.5 mph - 0.01 in   Mostly Cloudy
4:55 PM - - N/A% 29.96 in 7.0 mi SSW 10.4 mph - 0.01 in Rain Rain
5:15 PM - - N/A% 29.96 in 10.0 mi Calm Calm - N/A   Mostly Cloudy
5:35 PM 59.0 °F 51.8 °F 77% 29.96 in 7.0 mi SSW 5.8 mph - N/A   Mostly Cloudy
5:55 PM 59.0 °F 50.0 °F 72% 29.96 in 10.0 mi SSW 9.2 mph 16.1 mph N/A   Overcast
6:15 PM 57.2 °F 50.0 °F 77% 29.96 in 7.0 mi Calm Calm - N/A   Overcast
6:35 PM 55.4 °F 50.0 °F 82% 29.97 in 7.0 mi South 10.4 mph - N/A Rain Light Rain
6:55 PM 53.6 °F 50.0 °F 88% 29.97 in 10.0 mi SSE 5.8 mph - N/A   Overcast
7:15 PM 53.6 °F 48.2 °F 82% 29.97 in 10.0 mi SE 5.8 mph - N/A   Mostly Cloudy
7:35 PM 53.6 °F 50.0 °F 88% 29.97 in 10.0 mi SSE 5.8 mph - N/A   Mostly Cloudy
7:55 PM 53.6 °F 50.0 °F 88% 29.98 in 7.0 mi Calm Calm - N/A   Overcast
8:15 PM 51.8 °F 48.2 °F 88% 29.98 in 7.0 mi Calm Calm - N/A   Mostly Cloudy
8:35 PM 53.6 °F 50.0 °F 88% 29.98 in 10.0 mi Calm Calm - N/A   Overcast
8:55 PM 53.6 °F 50.0 °F 88% 29.98 in 10.0 mi Calm Calm - N/A   Overcast
9:15 PM 51.8 °F 50.0 °F 94% 29.98 in 10.0 mi Calm Calm - N/A   Overcast
9:35 PM 51.8 °F 50.0 °F 94% 29.99 in 10.0 mi Calm Calm - N/A   Overcast
9:55 PM 51.8 °F 48.2 °F 88% 29.99 in 10.0 mi SSE 8.1 mph - 0.01 in   Overcast
10:15 PM 51.8 °F 48.2 °F 88% 29.99 in 10.0 mi Calm Calm - N/A   Overcast
10:35 PM 51.8 °F 48.2 °F 88% 29.99 in 10.0 mi Calm Calm - N/A   Overcast
10:55 PM 51.8 °F 46.4 °F 82% 29.99 in 10.0 mi South 9.2 mph - N/A   Overcast
11:15 PM 51.8 °F 46.4 °F 82% 30.00 in 10.0 mi South 8.1 mph - N/A   Mostly Cloudy
11:35 PM 51.8 °F 48.2 °F 88% 29.99 in 10.0 mi Calm Calm - N/A   Mostly Cloudy
11:55 PM 53.6 °F 48.2 °F 82% 29.99 in 10.0 mi South 4.6 mph - N/A   Overcast